PSLV R/B, 43620

Orbit data source: Space-Track

PSLV R/B, 43620 is space debris in SSO originally from a launch on Sun, 16 Sep 2018 UTC launched from the Sirharikota (SRI). Debris objects in space refer to the collection of defunct objects orbiting the Earth. Examples of debris include non-operational satellites, rocket bodies, and fragments generated from explosions, collisions, or faulty payload assembly.

Loading next visibility...
Identifier
43620, 2018-071C
Orbit
SSO
Country
Flag of ININ / IND
Related business
Manufacturer
VSSC/LPSC
Mission
Spacecraft
Bus & Motor
PS-4, Unknown motor
Mass
920 kg wet, 920 kg dry
Launch date (UTC)
2018-09-16 (7 years ago)
Launch vehicle
Unknown
Launch site
Sirharikota (SRI)
Object type
Payload
Rocket body
Debris
Shape & HBR
Cyl + Cyl + 2 Nozzle, 1.6 m
Radar Cross Section
3.727 m², Large (>1 m²)

Expand to show TLE details & history
Last TLE update: 13 hours ago

TLE from 13 hours ago
0 PSLV R/B
1 43620U 18071C   25342.47307731  .00003343  00000-0  27473-3 0  9999
2 43620  97.4398 162.1578 0028620  53.7594 306.6269 14.99489301393834
Epoch: 2025-12-08T11:21Z
TLE epoch observation values (Epoch: 2025-12-08T11:21:13.879Z)
Latitude
-0°
Longitude
-85.62164°
Altitude
559.708 km
Speed
7.588 km/s
True Right ascension
10h 48m 37s
True Declination
0° 00' 00"
Sunlit
Object was in daylight at epoch
Visualization orbit readout
Latitude
Unknown
Longitude
Unknown
Altitude
Unknown
Speed
Unknown
Apparent Right ascension
Unknown
Apparent Declination
Unknown
Sunlit
N/A
Visualization observer readout
Local Sidereal Time
22:14:03
Azimuth
Unknown
Elevation
Unknown
Doppler factor
Unknown
Orbital elements
Apogee altitude
585.34 km
Perigee altitude
545.595 km
Semi-major axis
6,943.605 km
Eccentricity
0.00286
Inclination
97.4398°
RAAN
162.1578°
Arg. of periapsis
53.7594°
True anomaly
306.36314°
Mean anomaly
306.6269°
Eccentric anomaly
306.49507°
Mean motion
3.75116 °/min
Orbital period
95.97 mins
BSTAR
0.00027473
Loading maneuver chart data...
Computing Atmospheric mass density...
Loading historical data...
Loading historical data...
Loading historical data...
Loading historical data...
Loading historical data...
Loading historical data...
Loading historical data...
Other satellites on launch #71 in the year 2018 (2018-09-16 UTC)

Documentation

Showing up to 5 results
|